Home   Weather   Constanța   Past weeks

Flag for Romania Past Weather in Constanța, Romania — Yesterday and Last 2 Weeks

Now
42 °F

Passing clouds.


Feels Like: 38 °F
Forecast: 33 / 42 °F
Wind: 6 mph from Northwest

Location: Constanta

Current Time: Dec 2, 2016 at 9:52:58 pm

Latest Report: Dec 2, 2016 at 9:00 pm


Visibility: 6 mi

Pressure: 29.61 "Hg

Humidity: 64%

Dew Point: 30 °F

Location of ConstanțaLocation

Past Weather in Constanța — Graph

°F

Constanța Temperature Yesterday

Maximum temperature yesterday: 35 °F (at 3:00 pm)
Minimum temperature yesterday: 26 °F (at 7:00 am)
Average temperature yesterday: 29 °F

High & Low Weather Summary for the Past Weeks

 TemperatureHumidityPressure
High55 °F (Nov 18, 12:00 pm)99% (Nov 26, 5:00 am)30.45 "Hg (Nov 26, 5:00 am)
Low26 °F (Dec 1, 7:00 am)46% (Nov 30, 3:00 pm)29.44 "Hg (Dec 2, 3:00 pm)
Average43 °F81%30.20 "Hg
* Reported Nov 17 8:00 pm — Dec 2 8:00 pm, Constanța, Weather by CustomWeather, © 2016

Note: Actual official high and low records may vary slightly from our data, if they occured in-between our weather recording intervals... More about our weather records

Advertising

Constanța Weather History for the Previous 24 Hours

Scroll right to see more
 ConditionsComfort  
Time TempWeatherWind HumidityBarometerVisibility
8:00 pm
Fri, Dec 2
43 °FPassing clouds.8 mph60%29.54 "Hg6 mi
7:00 pm44 °FOvercast.6 mph76%29.47 "Hg6 mi
6:00 pm42 °FLight rain. Overcast.3 mph83%29.47 "Hg6 mi
5:00 pm44 °FOvercast.5 mph73%29.47 "Hg6 mi
4:00 pm44 °FOvercast.3 mph69%29.44 "Hg6 mi
3:00 pm45 °FOvercast.5 mph63%29.44 "Hg6 mi
2:00 pm46 °FPartly sunny.6 mph59%29.47 "Hg6 mi
1:00 pm45 °FPartly sunny.5 mph63%29.50 "Hg6 mi
12:00 pm42 °FOvercast.3 mph69%29.54 "Hg6 mi
11:00 am40 °FOvercast.6 mph72%29.59 "Hg6 mi
10:00 am39 °FOvercast.5 mph74%29.62 "Hg6 mi
9:00 am38 °FPartly sunny.5 mph79%29.64 "Hg6 mi
8:00 am36 °FOvercast.3 mph83%29.66 "Hg6 mi
7:00 am36 °FPassing clouds.5 mph84%29.69 "Hg6 mi
6:00 am35 °FClear.5 mph86%29.73 "Hg6 mi
5:00 am34 °FClear.5 mph84%29.77 "Hg6 mi
4:00 am32 °FClear.2 mph88%29.80 "Hg6 mi
3:00 am31 °FClear.5 mph91%29.83 "Hg6 mi
2:00 am31 °FFog.5 mph93%29.85 "Hg2 mi
12:00 am31 °FClear.3 mph88%29.91 "Hg6 mi
9:00 pm
Thu, Dec 1
32 °FFog.3 mph85%29.96 "Hg2 mi
Weather by CustomWeather, © 2016

See weather overviewHow to use our weather pages